Home   Weather   Stolberg (Rheinland)   Past weeks

Flag for Germany Past Weather in Stolberg (Rheinland), North Rhine-Westphalia, Germany — Yesterday and Last 2 Weeks

Now
39 °F

Sunny.


Feels Like: 33 °F
Forecast: 14 / 30 °F
Wind: 9 mph from East

Location: Geilenkirchen Airport

Current Time: Jan 20, 2017 at 3:20:26 pm

Latest Report: Jan 20, 2017 at 2:50 pm


Visibility: 10 mi

Pressure: 30.51 "Hg

Humidity: 39%

Dew Point: 16 °F

Location of Stolberg (Rheinland)Location

Past Weather in Stolberg (Rheinland) — Graph

°F

Stolberg (Rheinland) Temperature Yesterday

Maximum temperature yesterday: 36 °F (at 2:50 pm)
Minimum temperature yesterday: 19 °F (at 11:50 pm)
Average temperature yesterday: 26 °F

High & Low Weather Summary for the Past Weeks

 TemperatureHumidityPressure
High46 °F (Jan 11, 2:50 pm)100% (Jan 6, 6:50 am)30.74 "Hg (Jan 6, 6:50 am)
Low18 °F (Jan 6, 3:50 am)48% (Jan 20, 12:50 pm)28.94 "Hg (Jan 13, 12:50 am)
Average32 °F86%30.24 "Hg
* Reported Jan 5 1:50 pm — Jan 20 1:50 pm, Stolberg (Rheinland), Weather by CustomWeather, © 2017

Note: Actual official high and low records may vary slightly from our data, if they occured in-between our weather recording intervals... More about our weather records

Advertising

Stolberg (Rheinland) Weather History for the Previous 24 Hours

Scroll right to see more
 ConditionsComfort  
Time TempWeatherWind HumidityBarometerVisibility
1:50 pm
Fri, Jan 20
36 °FSunny.12 mph48%30.54 "Hg10 mi
12:50 pm36 °FSunny.12 mph48%30.54 "Hg10 mi
11:50 am32 °FSunny.12 mph60%30.57 "Hg10 mi
10:50 am30 °FSunny.8 mph69%30.57 "Hg10 mi
9:50 am27 °FSunny.7 mph80%30.57 "Hg10 mi
8:50 am23 °FSunny.7 mph80%30.57 "Hg10 mi
7:50 am21 °FClear.2 mph86%30.57 "Hg10 mi
6:50 am18 °FClear.1 mph93%30.57 "Hg10 mi
5:50 am18 °FClear.1 mph86%30.57 "Hg10 mi
4:50 am21 °FClear.2 mph86%30.57 "Hg10 mi
3:50 am23 °FClear.3 mph86%30.57 "Hg10 mi
2:50 am19 °FClear.2 mph93%30.57 "Hg10 mi
1:50 am21 °FClear.3 mph93%30.57 "Hg5 mi
12:50 am18 °FClear.2 mph93%30.57 "Hg5 mi
11:50 pm
Thu, Jan 19
19 °FCold.2 mph93%30.60 "Hg5 mi
10:50 pm21 °FClear.3 mph93%30.60 "Hg10 mi
9:50 pm23 °FClear.2 mph86%30.60 "Hg10 mi
8:50 pm23 °FClear.1 mph86%30.60 "Hg10 mi
7:50 pm25 °FClear.1 mph80%30.60 "Hg10 mi
6:50 pm27 °FClear.1 mph80%30.60 "Hg10 mi
5:50 pm27 °FClear.No wind74%30.60 "Hg10 mi
4:50 pm34 °FSunny.6 mph60%30.60 "Hg10 mi
3:50 pm36 °FSunny.8 mph60%30.60 "Hg10 mi
Weather by CustomWeather, © 2017

See weather overviewHow to use our weather pages